TimeCDT,TemperatureF,Dew PointF,Humidity,Sea Level PressureIn,VisibilityMPH,Wind Direction,Wind SpeedMPH,Gust SpeedMPH,PrecipitationIn,Events,Conditions,WindDirDegrees,DateUTC
12:53 AM,19.0,15.1,85,30.36,10.0,Calm,Calm,-,N/A,,Clear,0,2013-03-28 05:53:00
1:53 AM,18.0,12.9,81,30.36,10.0,Calm,Calm,-,N/A,,Clear,0,2013-03-28 06:53:00
2:53 AM,17.1,12.9,84,30.36,10.0,Calm,Calm,-,N/A,,Clear,0,2013-03-28 07:53:00
3:53 AM,15.1,10.9,84,30.37,10.0,Calm,Calm,-,N/A,,Clear,0,2013-03-28 08:53:00
4:53 AM,12.9,9.0,84,30.36,10.0,Calm,Calm,-,N/A,,Clear,0,2013-03-28 09:53:00
5:53 AM,12.9,8.1,81,30.36,10.0,Calm,Calm,-,N/A,,Clear,0,2013-03-28 10:53:00
6:53 AM,12.0,7.0,80,30.38,10.0,Calm,Calm,-,N/A,,Clear,0,2013-03-28 11:53:00
7:53 AM,14.0,10.9,88,30.39,10.0,Calm,Calm,-,N/A,,Clear,0,2013-03-28 12:53:00
8:53 AM,25.0,18.0,75,30.38,10.0,Calm,Calm,-,N/A,,Clear,0,2013-03-28 13:53:00
9:53 AM,30.9,18.0,59,30.38,10.0,Calm,Calm,-,N/A,,Clear,0,2013-03-28 14:53:00
10:53 AM,37.9,17.1,43,30.37,10.0,Calm,Calm,-,N/A,,Clear,0,2013-03-28 15:53:00
11:53 AM,42.1,12.9,31,30.36,10.0,Variable,3.5,-,N/A,,Clear,0,2013-03-28 16:53:00
12:53 PM,44.1,14.0,30,30.35,10.0,Variable,3.5,-,N/A,,Clear,0,2013-03-28 17:53:00
1:53 PM,45.0,14.0,29,30.34,10.0,Variable,4.6,-,N/A,,Clear,0,2013-03-28 18:53:00
2:53 PM,44.1,12.0,27,30.32,10.0,Variable,3.5,-,N/A,,Clear,0,2013-03-28 19:53:00
3:53 PM,45.0,12.9,27,30.31,10.0,Variable,4.6,-,N/A,,Clear,0,2013-03-28 20:53:00
4:53 PM,45.0,12.0,26,30.30,10.0,Calm,Calm,-,N/A,,Clear,0,2013-03-28 21:53:00
5:53 PM,45.0,14.0,29,30.30,10.0,Calm,Calm,-,N/A,,Clear,0,2013-03-28 22:53:00
6:53 PM,43.0,12.0,28,30.31,10.0,Calm,Calm,-,N/A,,Clear,0,2013-03-28 23:53:00
7:53 PM,33.1,16.0,50,30.32,10.0,Calm,Calm,-,N/A,,Clear,0,2013-03-29 00:53:00
8:53 PM,30.0,16.0,56,30.33,10.0,Calm,Calm,-,N/A,,Clear,0,2013-03-29 01:53:00
9:53 PM,28.0,16.0,61,30.34,10.0,Calm,Calm,-,N/A,,Clear,0,2013-03-29 02:53:00
10:53 PM,25.0,18.0,75,30.33,10.0,Calm,Calm,-,N/A,,Clear,0,2013-03-29 03:53:00
11:53 PM,23.0,17.1,78,30.33,10.0,Calm,Calm,-,N/A,,Clear,0,2013-03-29 04:53:00